Other Surface Observations
Issued by NWS

Home | Current Version | Previous Version | Text Only | Print | Product List | Glossary On
Versions: 1 2 3 4 5 6 7 8 9 10 11 12 13 14 15 16 17 18 19 20 21 22 23 24 25 26 27 28 29 30 31 32 33 34 35 36 37 38 39 40 41 42 43 44 45 46 47 48 49 50
482
SXUS52 KTAE 110118
OSOTAE
OSOTAE
North Florida/South Alabama/Southwest Georgia Weather Roundup
National Weather Service Tallahassee Florida
800 PM EST SUN DEC 10 2017

Note: "fair" indicates few or no clouds below 12,000 feet with no
significant weather and/or obstructions to visibility.

!FLZ017-115-028-034-025-110200
...North Florida...

CITY           SKY/WX    TMP DP  RH WIND       PRES   REMARKS
TALLAHASSEE    CLEAR     37  31  78 CALM      30.31R
APALACHICOLA   CLEAR     39  34  82 NW3       30.32S
PERRY          CLEAR     39  37  90 CALM      30.31S
CROSS CITY     CLEAR     37  35  93 CALM      30.36R
JACKSONVILLE   CLEAR     41  36  82 CALM      30.28S
$$

!FLZ112-006-005-002-011-110200
...Florida Panhandle...

CITY           SKY/WX    TMP DP  RH WIND       PRES   REMARKS
MARIANNA       CLEAR     38  32  79 CALM      30.32R
BONIFAY        NOT AVBL
PANAMA CITY NW FAIR      38  34  85 CALM      30.33R
TYNDALL AFB    CLEAR     38  35  88 CALM      30.33R
TYND DRONE APT FAIR      40  35  81 CALM      30.33R
DE FUNIAK SPR  FAIR      38  30  73 SW5       30.33S WCI  34
EGLIN AFB      CLEAR     43  32  65 W5        30.33R WCI  40
DESTIN         CLEAR     46  33  60 CALM      30.34R
HURLBURT       CLEAR     39  36  87 N3        30.32R
CRESTVIEW      CLEAR     36  33  89 CALM      30.34R
PENSACOLA      CLEAR     46  33  60 W6        30.34R WCI  43
$$

!ALZ063-066-110200
...South Alabama...

CITY           SKY/WX    TMP DP  RH WIND       PRES   REMARKS
DOTHAN         CLEAR     42  29  59 W5        30.33R WCI  39
OZARK CAIRNS   CLEAR     39  29  67 SW5       30.30S WCI  36
FT RUCKER HELI CLEAR     35  33  92 CALM      30.31R
RUCKER HELI 3    N/A     38  31  76 W3        30.30R
RUCKER HELI 2  FAIR      35  34  93 W3        30.30R
FLORALA APT    CLEAR     36  31  82 CALM      30.34R
ANDALUSIA      CLEAR     39  32  76 CALM      30.31R
TROY           CLEAR     35  33  92 CALM      30.31R
EUFALA         FAIR      33  30  88 CALM      30.28S
MOBILE         CLEAR     42  36  79 CALM      30.33S
$$

!GAZ120>161-110200
...Southwest and South Central Georgia...

CITY           SKY/WX    TMP DP  RH WIND       PRES   REMARKS
THOMASVILLE    FAIR      37  37 100 W5        30.31R WCI  34
BAINBRIDGE     CLEAR     37  36  93 CALM      30.32R
MOODY AFB      CLEAR     37  32  82 SW3       30.27S
VALDOSTA       CLEAR     33  30  88 CALM      30.30R
MOULTRIE       CLEAR     39  36  87 CALM      30.30R
BLAKELY        NOT AVBL
ALBANY         CLEAR     37  30  75 CALM      30.32R
TIFTON         FAIR      37  35  92 CALM      30.29R
FITZGERALD     FAIR      38  34  86 SW3       30.30S
CORDELE        FAIR      41  32  70 CALM      30.29S
AMERICUS       FAIR      36  27  69 CALM      30.29S
HOMERVILLE     FAIR      34  34 100 CALM      30.29S
$$

!GMZ750-755-770-775-110200
...Coastal and Buoy Obs...

STATION/POSITION TIME  TEMP    WIND        PRES    VSBY  WAVE
                       AIR SEA DIR/SP/G                  HT/PER
                 (UTC) (F)     (DEG/KT/KT) (MB)    (MI)  (FT/S)
KEATON BEACH     0100   51     290/  9/ 10 1025.8R
CEDAR KEY        0100   50     310/  2/  3 1026.5S
C TOWER          0100   53     310/ 10/ 13 1027.1R
APALACHICOLA BUO NOT AVBL
PANAMA CITY BUOY 0050   58 75  320/ 12/ 16 1026.9R         3/ 5
MOBILE BUOY      0050   59 74  290/  8/ 12 1027.8R         2/ 7
ORANGE BCH AL BU NOT AVBL
$$




USA.gov is the U.S. government's official web portal to all federal, state and local government web resources and services.